[Iaude] MPEC N71: 2024 NJ1 [a=1.27,e=0.21,i=6.0,H=24.8]
    mpec at cfa.harvard.edu 
    mpec at cfa.harvard.edu
       
    Sat Jul  6 02:38:05 EDT 2024
    
    
  
M.P.E.C. 2024-N71                                  Issued 2024 July 6, 06:36 UT
     The Minor Planet Electronic Circulars contain information on unusual
         minor planets, routine data on comets and natural satellites,
         and occasional editorial announcements.  They are published
    on behalf of Division F of the International Astronomical Union by the
          Minor Planet Center, Smithsonian Astrophysical Observatory,
                          Cambridge, MA 02138, U.S.A.
			  
             Prepared using the Tamkin Foundation Computer Network
                              MPC at CFA.HARVARD.EDU
            URL https://www.minorplanetcenter.net/    ISSN 1523-6714
                                    2024 NJ1                                    
Observations:
     K24N01J* C2024 07 04.43102918 35 58.344+40 12 23.94         20.54wXEN071F51
     K24N01J  C2024 07 04.44443418 36 02.490+40 11 40.47         20.54wXEN071F51
     K24N01J  C2024 07 04.45782318 36 06.632+40 10 56.41         20.91wXEN071F51
     K24N01J  C2024 07 04.47116918 36 10.787+40 10 11.73         20.55wXEN071F51
     K24N01J KB2024 07 04.88185 18 38 53.87 +39 47 23.4          20.1 RZEN071106
     K24N01J KB2024 07 04.88501 18 38 54.84 +39 47 15.3          20.2 RZEN071106
     K24N01J KB2024 07 04.88848 18 38 55.94 +39 47 05.1          20.2 RZEN071106
     K24N01J KB2024 07 04.89164 18 38 56.96 +39 46 55.7          20.5 RZEN071106
     K24N01J KC2024 07 04.89273418 38 57.42 +39 46 54.4          20.0 GVEN071L01
     K24N01J KC2024 07 04.89393 18 38 56.43 +39 46 46.4          21.6 VZEN071M38
     K24N01J KC2024 07 04.89441818 38 57.93 +39 46 48.8          20.4 GVEN071L01
     K24N01J KC2024 07 04.89610218 38 58.47 +39 46 43.8          20.4 GVEN071L01
     K24N01J KC2024 07 04.89778718 38 58.97 +39 46 39.5          20.3 GVEN071L01
     K24N01J KC2024 07 04.89947418 38 59.53 +39 46 34.7          20.4 GVEN071L01
     K24N01J KB2024 07 04.90080518 39 02.03 +39 46 24.8          20.0 GXEN071I93
     K24N01J KB2024 07 04.90623318 39 03.80 +39 46 08.9          20.8 GXEN071I93
     K24N01J KB2024 07 04.91142318 39 05.45 +39 45 53.9          20.5 GXEN071I93
     K24N01J KC2024 07 04.91220 18 39 02.20 +39 45 51.4          20.6 VZEN071M38
     K24N01J KB2024 07 04.91316418 39 06.18 +39 45 50.6          20.2 GXEN071958
     K24N01J KC2024 07 04.91732918 39 05.57 +39 45 43.5          20.8 GVEN071104
     K24N01J KB2024 07 04.91866018 39 07.80 +39 45 35.2          20.5 GXEN071958
     K24N01J KB2024 07 04.92395918 39 09.43 +39 45 19.4          19.8 GXEN071958
     K24N01J KB2024 07 04.92486 18 39 08.20 +39 45 14.6                VEN071204
     K24N01J KC2024 07 04.93311918 39 10.50 +39 44 54.6                VEN071104
     K24N01J HB2024 07 04.93690 18 39 11.94 +39 44 38.2                VEN071204
     K24N01J IB2024 07 04.94894 18 39 15.69 +39 44 01.5          20.6 GVEN071204
     K24N01J KC2024 07 04.99111718 39 28.63 +39 41 49.8                VEN071203
     K24N01J KC2024 07 05.02746118 39 39.88 +39 39 52.4          20.5 GVEN071203
     K24N01J KC2024 07 05.11364018 40 21.61 +39 35 24.6          21.2 GVEN071H21
     K24N01J KC2024 07 05.11643618 40 22.49 +39 35 16.7          21.2 GVEN071H21
     K24N01J KC2024 07 05.11923118 40 23.34 +39 35 09.0          21.5 GVEN071H21
     K24N01J KC2024 07 06.17764918 46 20.31 +38 41 45.3          21.2 GVEN071H21
     K24N01J KC2024 07 06.18043218 46 24.05 +38 41 37.2          20.9 GXEN071858
     K24N01J KC2024 07 06.18637118 46 25.63 +38 41 20.9          21.2 GXEN071858
     K24N01J KC2024 07 06.18883118 46 23.24 +38 41 13.8          20.9 GVEN071H21
     K24N01J KC2024 07 06.19162718 46 23.99 +38 41 05.8          21.0 GVEN071H21
     K24N01J KC2024 07 06.19818818 46 28.87 +38 40 48.7          21.2 GXEN071858
     K24N01J KB2024 07 06.23190 18 46 35.830+38 39 10.04         20.7 RZEN071H36
     K24N01J KB2024 07 06.25771 18 46 42.518+38 37 54.23         20.6 RZEN071H36
Observer details:
104 San Marcello Pistoiese.  Observers P. Bacci, M. Maestripieri.  Measurer P.
    Bacci.  0.60-m f/4.0 reflector + CCD.
106 Crni Vrh.  Observer H. Mikuz.  0.60-m f/3.3 reflector + CMO.
203 GiaGa Observatory.  Observer G. Galli.  0.36-m f/5.76 Schmidt-Cassegrain +
    CCD.
204 Schiaparelli Observatory.  Observer L. Buzzi.  0.84-m f/3.5 reflector +
    CMO.
858 Tebbutt Observatory, Edgewood.  Observer F. B. Zoltowski.  0.51-m f/8.1
    Schmidt-Cassegrain + CCD.
958 Observatoire de Dax.  Observer P. Dupouy.  0.50-m f/4.5 Reflector + CMO.
F51 Pan-STARRS 1, Haleakala.  Observers J. Herman, T. Lowe, P. Minguez, A.
    Schultz, I. Smith.  Measurers K. Chambers, T. de Boer, J. Fairlamb, H.
    Gao, M. Huber, C.-C. Lin, E. Magnier, Y. Ramanjooloo, R. Wainscoat, R.
    Weryk.  1.8-m Ritchey-Chretien + CCD.
H21 Astronomical Research Observatory, Westfield.  Observer R. Holmes.
    Measurers T. Linder, R. Holmes, L. Horn.  0.76-m f/3.0 astrograph + CCD.
H36 Sandlot Observatory, Scranton.  Observer G. Hug.  0.56-m f/4.25 reflector
    + CMO.
I93 St Pardon de Conques.  Observer F. Losse.  0.40-m f/3.7 reflector + CMO.
L01 Visnjan Observatory, Tican.  Observer K. Korlevic.  1.0-m f/2.9 reflector
    + CCD.
M38 Harsona Observatory, Nyiregyhaza.  Observer T. Elek.  0.20-m f/3 reflector
    + CCD.
Orbital elements:
2024 NJ1                                                 Earth MOID = 0.0088 AU
Epoch 2024 Mar. 31.0 TT = JDT 2460400.5                 MPC                     
M 319.93642              (2000.0)            P               Q                  
n   0.68832499     Peri.  348.61331     -0.44358867     +0.89061539             
a   1.2703996      Node   254.98786     -0.81391647     -0.44711168             
e   0.2111489      Incl.    5.95261     -0.37519205     -0.08303838             
P   1.43           H   24.81          G   0.15           U   8                  
Residuals in seconds of arc
240704 F51  0.1-  0.0     240704 L01  0.2+  0.6+    240704 203  0.2-  0.3-
240704 F51  0.0   0.0     240704 I93  0.1-  0.1+    240705 203  0.0   0.3-
240704 F51  0.1-  0.1-    240704 I93  0.4+  0.0     240705 H21  0.1+  0.0
240704 F51  0.0   0.2-    240704 I93  0.5+  0.1+    240705 H21  0.2+  0.1-
240704 106  0.1+  1.5-    240704 M38  0.6+  0.7+    240705 H21  0.1-  0.1-
240704 106  0.3-  0.3-    240704 958  0.4+  0.2+    240706 H21  0.0   0.2-
240704 106  0.3-  0.2-    240704 104  0.4-  0.8+    240706 858  0.1+  0.4+
240704 106  0.0   0.2-    240704 958  0.9-  0.8+    240706 858  0.3-  0.0
240704 L01  0.3+  0.2+    240704 958  1.3-  0.6+    240706 H21  0.3-  0.1-
240704 M38  0.2+  0.2-    240704 204  0.1+  0.0     240706 H21  0.1-  0.1-
240704 L01  0.1+  0.4-    240704 104  0.0   0.3-    240706 858  0.6+  0.1-
240704 L01  0.2+  0.4-    240704 204  0.0   0.0     240706 H36  0.1+  0.3+
240704 L01  0.1-  0.3+    240704 204  0.2+  0.2+    240706 H36  0.2+  0.1+
Ephemeris:
2024 NJ1                 a,e,i = 1.27, 0.21, 6                   q = 1.0022
Date    TT    R. A. (2000) Decl.     Delta      r    Elong.  Phase     V
2024 06 06    10 03 35.6 +06 59 04   0.04270 1.0046    75.1   102.6    21.7
...
2024 06 21    14 46 07.5 +49 10 17   0.02961 1.0195    95.7    82.7    20.1
...
2024 06 29    17 45 55.6 +45 27 42   0.04353 1.0327   110.5    67.2    20.4
...
2024 07 05    18 39 33.1 +39 41 41   0.05782 1.0446   117.4    59.8    20.9
2024 07 06    18 45 19.0 +38 50 45   0.06034 1.0467   118.4    58.7    20.9
2024 07 07    18 50 30.0 +38 01 47   0.06290 1.0489   119.3    57.7    21.0
...
2024 07 13    19 13 04.1 +33 42 46   0.07874 1.0629   124.3    52.2    21.3
...
2024 07 21    19 30 33.4 +28 59 13   0.1010  1.0837   130.0    45.9    21.8
...
2024 08 05    19 48 51.0 +21 25 03   0.1469  1.1275   137.7    37.2    22.4
A. U. Tomatic                (C) Copyright 2024 MPC           M.P.E.C. 2024-N71
    
    
More information about the Iaude
mailing list